TimeCDT,TemperatureF,Dew PointF,Humidity,Sea Level PressureIn,VisibilityMPH,Wind Direction,Wind SpeedMPH,Gust SpeedMPH,PrecipitationIn,Events,Conditions,WindDirDegrees,DateUTC
12:15 AM,41.0,34.9,79,29.91,10.0,NNW,8.1,-,N/A,,Overcast,330,2013-03-12 05:15:00
12:35 AM,41.0,34.5,78,29.91,10.0,NW,4.6,-,N/A,,Overcast,310,2013-03-12 05:35:00
12:55 AM,41.0,34.0,76,29.92,10.0,NW,4.6,-,N/A,,Overcast,320,2013-03-12 05:55:00
1:15 AM,40.6,33.6,76,29.92,10.0,North,6.9,-,N/A,,Overcast,350,2013-03-12 06:15:00
1:35 AM,40.5,33.6,77,29.92,10.0,NW,5.8,-,N/A,,Overcast,310,2013-03-12 06:35:00
1:55 AM,40.5,33.6,77,29.92,10.0,NW,5.8,-,N/A,,Overcast,320,2013-03-12 06:55:00
2:15 AM,40.5,33.3,75,29.92,10.0,NNW,6.9,-,N/A,,Overcast,340,2013-03-12 07:15:00
2:35 AM,40.1,32.7,75,29.92,10.0,NNW,10.4,-,N/A,,Overcast,330,2013-03-12 07:35:00
2:55 AM,39.7,32.4,75,29.92,10.0,NNW,4.6,-,N/A,,Overcast,340,2013-03-12 07:55:00
3:15 AM,39.6,32.0,74,29.93,10.0,NW,8.1,-,N/A,,Overcast,310,2013-03-12 08:15:00
3:35 AM,39.2,31.8,75,29.93,10.0,NNW,8.1,17.3,N/A,,Overcast,330,2013-03-12 08:35:00
3:55 AM,39.0,31.6,75,29.93,10.0,NW,12.7,-,N/A,,Overcast,310,2013-03-12 08:55:00
4:15 AM,38.7,31.1,74,29.93,10.0,NW,5.8,-,N/A,,Overcast,320,2013-03-12 09:15:00
4:35 AM,38.3,30.7,74,29.94,10.0,NNW,5.8,-,N/A,,Overcast,330,2013-03-12 09:35:00
4:55 AM,38.5,30.7,74,29.95,10.0,NNW,8.1,-,N/A,,Overcast,330,2013-03-12 09:55:00
5:15 AM,38.3,31.1,75,29.95,10.0,NNW,4.6,-,N/A,,Overcast,330,2013-03-12 10:15:00
5:35 AM,38.3,31.1,75,29.97,10.0,NW,8.1,-,N/A,,Overcast,310,2013-03-12 10:35:00
5:55 AM,37.6,31.8,80,29.97,10.0,WNW,4.6,-,N/A,,Overcast,300,2013-03-12 10:55:00
6:15 AM,37.4,32.0,81,29.98,10.0,Calm,Calm,-,N/A,,Overcast,0,2013-03-12 11:15:00
6:35 AM,37.4,32.0,81,30.00,10.0,WNW,4.6,-,N/A,,Overcast,300,2013-03-12 11:35:00
6:55 AM,37.4,30.7,77,29.99,10.0,Calm,Calm,-,N/A,,Overcast,0,2013-03-12 11:55:00
7:15 AM,37.6,31.1,77,30.00,10.0,Calm,Calm,-,N/A,,Overcast,0,2013-03-12 12:15:00
7:35 AM,37.8,31.6,79,30.00,10.0,Calm,Calm,-,N/A,,Overcast,0,2013-03-12 12:35:00
7:55 AM,37.8,30.4,75,30.00,10.0,NW,3.5,-,N/A,,Overcast,310,2013-03-12 12:55:00
8:15 AM,37.4,32.0,81,30.02,10.0,Calm,Calm,-,N/A,,Overcast,0,2013-03-12 13:15:00
8:55 AM,36.7,33.4,88,30.02,10.0,NNE,5.8,-,N/A,,Drizzle,20,2013-03-12 13:55:00
9:15 AM,36.9,33.1,86,30.03,10.0,NNW,8.1,-,N/A,,Overcast,340,2013-03-12 14:15:00
9:35 AM,37.9,30.7,75,30.03,10.0,NW,4.6,-,N/A,,Overcast,310,2013-03-12 14:35:00
9:55 AM,37.6,30.0,74,30.03,10.0,NW,5.8,-,N/A,,Overcast,320,2013-03-12 14:55:00
10:15 AM,37.8,30.9,76,30.04,10.0,WNW,4.6,-,N/A,,Overcast,290,2013-03-12 15:15:00
10:35 AM,38.5,30.6,73,30.05,10.0,WNW,6.9,-,N/A,,Overcast,290,2013-03-12 15:35:00
10:55 AM,38.5,30.6,73,30.08,10.0,WNW,8.1,-,N/A,,Overcast,300,2013-03-12 15:55:00
11:15 AM,38.5,30.0,72,30.07,10.0,NW,6.9,-,N/A,,Overcast,310,2013-03-12 16:15:00
11:55 AM,39.7,30.4,69,30.06,10.0,NNW,9.2,-,N/A,,Overcast,330,2013-03-12 16:55:00
12:15 PM,39.7,30.9,71,30.07,10.0,WNW,6.9,-,N/A,,Overcast,290,2013-03-12 17:15:00
12:35 PM,40.6,30.2,66,30.06,10.0,Calm,Calm,-,N/A,,Overcast,0,2013-03-12 17:35:00
12:55 PM,41.9,30.6,64,30.06,10.0,NW,6.9,-,N/A,,Overcast,320,2013-03-12 17:55:00
1:15 PM,41.7,29.5,62,30.05,10.0,NW,3.5,-,N/A,,Mostly Cloudy,320,2013-03-12 18:15:00
1:35 PM,43.9,29.8,58,30.05,10.0,SSW,4.6,-,N/A,,Mostly Cloudy,210,2013-03-12 18:35:00
1:55 PM,43.7,29.8,58,30.03,10.0,Calm,Calm,-,N/A,,Scattered Clouds,0,2013-03-12 18:55:00
2:15 PM,46.2,31.3,56,30.03,10.0,NNE,3.5,-,N/A,,Clear,30,2013-03-12 19:15:00
2:35 PM,47.5,31.1,53,30.02,10.0,West,3.5,-,N/A,,Scattered Clouds,270,2013-03-12 19:35:00
2:55 PM,48.0,31.1,52,30.02,10.0,Calm,Calm,-,N/A,,Scattered Clouds,0,2013-03-12 19:55:00
3:15 PM,49.6,30.7,48,30.02,10.0,West,9.2,-,N/A,,Clear,280,2013-03-12 20:15:00
3:35 PM,50.2,31.3,48,30.02,10.0,West,9.2,-,N/A,,Clear,280,2013-03-12 20:35:00
3:55 PM,50.0,31.3,49,30.02,10.0,West,4.6,-,N/A,,Clear,260,2013-03-12 20:55:00
4:15 PM,50.2,30.9,48,30.02,10.0,West,4.6,-,N/A,,Scattered Clouds,260,2013-03-12 21:15:00
4:35 PM,50.2,30.4,47,30.02,10.0,West,4.6,-,N/A,,Clear,280,2013-03-12 21:35:00
4:55 PM,50.2,30.4,47,30.02,10.0,North,5.8,-,N/A,,Scattered Clouds,360,2013-03-12 21:55:00
5:15 PM,49.6,30.4,48,30.02,10.0,West,3.5,-,N/A,,Scattered Clouds,280,2013-03-12 22:15:00
5:35 PM,50.0,30.0,46,30.02,10.0,NNW,4.6,-,N/A,,Clear,330,2013-03-12 22:35:00
5:55 PM,49.3,30.2,48,30.02,10.0,Calm,Calm,-,N/A,,Scattered Clouds,0,2013-03-12 22:55:00
6:15 PM,48.4,29.3,48,30.02,10.0,Calm,Calm,-,N/A,,Scattered Clouds,0,2013-03-12 23:15:00
6:35 PM,47.5,29.1,49,30.03,10.0,Calm,Calm,-,N/A,,Clear,0,2013-03-12 23:35:00
6:55 PM,46.4,29.5,52,30.04,10.0,Calm,Calm,-,N/A,,Clear,0,2013-03-12 23:55:00
7:15 PM,43.7,31.5,62,30.03,10.0,Calm,Calm,-,N/A,,Clear,0,2013-03-13 00:15:00
7:35 PM,41.4,32.2,70,30.05,10.0,Calm,Calm,-,N/A,,Clear,0,2013-03-13 00:35:00
7:55 PM,41.0,32.0,70,30.05,10.0,Calm,Calm,-,N/A,,Clear,0,2013-03-13 00:55:00
8:15 PM,39.2,32.5,77,30.06,10.0,Calm,Calm,-,N/A,,Clear,0,2013-03-13 01:15:00
8:35 PM,38.7,32.0,77,30.07,10.0,Calm,Calm,-,N/A,,Clear,0,2013-03-13 01:35:00
8:55 PM,37.9,32.0,79,30.07,10.0,Calm,Calm,-,N/A,,Clear,0,2013-03-13 01:55:00
9:15 PM,35.8,32.0,86,30.07,10.0,Calm,Calm,-,N/A,,Clear,0,2013-03-13 02:15:00
9:35 PM,35.1,31.8,88,30.07,10.0,Calm,Calm,-,N/A,,Clear,0,2013-03-13 02:35:00
9:55 PM,34.9,32.0,89,30.08,10.0,Calm,Calm,-,N/A,,Clear,0,2013-03-13 02:55:00
10:15 PM,33.8,31.6,92,30.09,10.0,Calm,Calm,-,N/A,,Clear,0,2013-03-13 03:15:00
10:35 PM,33.8,31.3,90,30.09,10.0,Calm,Calm,-,N/A,,Clear,0,2013-03-13 03:35:00
10:55 PM,37.0,30.4,77,30.09,10.0,WNW,5.8,-,N/A,,Clear,300,2013-03-13 03:55:00
11:15 PM,41.4,28.8,61,30.10,10.0,WNW,8.1,-,N/A,,Clear,290,2013-03-13 04:15:00
11:35 PM,39.4,29.1,67,30.10,10.0,WNW,4.6,-,N/A,,Clear,290,2013-03-13 04:35:00
11:55 PM,37.8,28.9,71,30.09,10.0,NW,3.5,-,N/A,,Clear,310,2013-03-13 04:55:00